User: anonymous
Location: Gipe Farm
(40.9466°N, 95.5370°W)
Time: 06:42:09
(UTC-05:00)
Language:

Cosmos 1842 - Orbit

View from above orbital plane
View from above orbital plane
View from above satellite
View from above satellite

Ground track
Ground track

The orbit data is extracted from the following two-line orbital elements,

1 17911U 87038A   14114.10905563  .00004696  00000-0  31913-3 0  4579
2 17911 082.4913 236.6316 0013400 197.3979 162.6791 15.06079593468328
Epoch (UTC): 24 April 2014 02:37:02
Eccentricity: 0.0013400
inclination: 82.4913°
perigee height: 539 km
apogee height: 557 km
right ascension of ascending node: 236.6316°
argument of perigee: 197.3979°
revolutions per day: 15.06079593
mean anomaly at epoch: 162.6791°
orbit number at epoch: 46832

The dashed part of the orbit path shows where the satellite is in the earth's shadow,  

DLR